| time (UTC) | temp F | wind direction | speed knots | gust knots | rain 1hr in | rain 24hr in | rain mn in | humidity % | barometer mb |
| 20260506143740 | 50 | 103 | 0.9 | 0.9 | 0.00 | 0.00 | 0.00 | 76 | 1014.0 |
| 20260506143237 | 49 | 102 | 0.0 | 0.9 | 0.00 | 0.00 | 0.00 | 77 | 1014.4 |
| 20260506142736 | 48 | 102 | 0.0 | 0.0 | 0.00 | 0.00 | 0.00 | 78 | 1014.4 |
| 20260506142233 | 48 | 123 | 0.0 | 0.0 | 0.00 | 0.00 | 0.00 | 80 | 1014.2 |
| 20260506141731 | 47 | 133 | 0.0 | 0.0 | 0.00 | 0.00 | 0.00 | 81 | 1014.3 |
| 20260506141229 | 46 | 133 | 0.0 | 0.0 | 0.00 | 0.00 | 0.00 | 83 | 1014.2 |
| 20260506140727 | 46 | 133 | 0.0 | 0.0 | 0.00 | 0.00 | 0.00 | 83 | 1014.2 |
| 20260506140223 | 45 | 133 | 0.0 | 0.0 | 0.00 | 0.00 | 0.00 | 83 | 1014.3 |
| 20260506135720 | 45 | 132 | 0.0 | 0.0 | 0.00 | 0.00 | 0.00 | 84 | 1013.9 |
| 20260506135216 | 44 | 129 | 0.0 | 0.0 | 0.00 | 0.00 | 0.00 | 85 | 1014.6 |
| 20260506134714 | 44 | 129 | 0.0 | 0.0 | 0.00 | 0.00 | 0.00 | 87 | 1014.4 |
| 20260506134209 | 43 | 100 | 0.0 | 0.0 | 0.00 | 0.00 | 0.00 | 86 | 1014.4 |
| 20260506133707 | 43 | 98 | 0.0 | 0.0 | 0.00 | 0.00 | 0.00 | 88 | 1014.3 |
| 20260506133203 | 42 | 96 | 0.0 | 0.0 | 0.00 | 0.00 | 0.00 | 89 | 1014.4 |
| 20260506132701 | 42 | 101 | 0.0 | 0.0 | 0.00 | 0.00 | 0.00 | 90 | 1014.2 |
| 20260506132157 | 42 | 108 | 0.0 | 0.0 | 0.00 | 0.00 | 0.00 | 91 | 1014.3 |
| 20260506131655 | 41 | 120 | 0.0 | 0.0 | 0.00 | 0.00 | 0.00 | 92 | 1013.9 |
| 20260506131151 | 41 | 126 | 0.0 | 0.0 | 0.00 | 0.00 | 0.00 | 93 | 1014.0 |
| 20260506130648 | 40 | 139 | 0.0 | 0.0 | 0.00 | 0.00 | 0.00 | 94 | 1014.2 |
| 20260506130145 | 39 | 139 | 0.0 | 0.0 | 0.00 | 0.00 | 0.00 | 94 | 1013.9 |
| 20260506125644 | 39 | 140 | 0.0 | 0.0 | 0.00 | 0.00 | 0.00 | 94 | 1013.8 |
| 20260506125141 | 39 | 125 | 0.0 | 0.0 | 0.00 | 0.00 | 0.00 | 95 | 1013.8 |
| 20260506124639 | 39 | 122 | 0.0 | 0.0 | 0.00 | 0.00 | 0.00 | 95 | 1014.2 |
| 20260506124136 | 38 | 122 | 0.0 | 0.0 | 0.00 | 0.00 | 0.00 | 95 | 1013.8 |
| 20260506123634 | 38 | 122 | 0.0 | 0.0 | 0.00 | 0.00 | 0.00 | 95 | 1013.8 |
| 20260506123132 | 38 | 122 | 0.0 | 0.0 | 0.00 | 0.00 | 0.00 | 95 | 1013.7 |
| 20260506122629 | 39 | 121 | 0.0 | 0.0 | 0.00 | 0.00 | 0.00 | 95 | 1013.8 |
| 20260506122126 | 39 | 123 | 0.0 | 0.0 | 0.00 | 0.00 | 0.00 | 95 | 1013.8 |
| 20260506121624 | 39 | 151 | 0.0 | 0.0 | 0.00 | 0.00 | 0.00 | 95 | 1013.7 |
| 20260506121120 | 39 | 152 | 0.0 | 0.0 | 0.00 | 0.00 | 0.00 | 95 | 1013.6 |
| 20260506120618 | 39 | 152 | 0.0 | 0.0 | 0.00 | 0.00 | 0.00 | 95 | 1013.6 |
| 20260506120115 | 39 | 152 | 0.0 | 0.0 | 0.00 | 0.00 | 0.00 | 95 | 1013.6 |
| 20260506115614 | 39 | 152 | 0.0 | 0.0 | 0.00 | 0.00 | 0.00 | 95 | 1013.5 |
| 20260506115112 | 39 | 153 | 0.0 | 0.0 | 0.00 | 0.00 | 0.00 | 95 | 1013.5 |
| 20260506114608 | 39 | 153 | 0.0 | 0.0 | 0.00 | 0.00 | 0.00 | 95 | 1013.5 |
| 20260506114107 | 40 | 153 | 0.0 | 0.0 | 0.00 | 0.00 | 0.00 | 95 | 1013.4 |
| 20260506113604 | 40 | 153 | 0.0 | 0.0 | 0.00 | 0.00 | 0.00 | 95 | 1013.4 |
| 20260506113101 | 39 | 153 | 0.0 | 0.0 | 0.00 | 0.00 | 0.00 | 94 | 1013.5 |
| 20260506112557 | 40 | 154 | 0.0 | 0.0 | 0.00 | 0.00 | 0.00 | 94 | 1013.6 |
| 20260506112055 | 40 | 162 | 0.0 | 0.9 | 0.00 | 0.00 | 0.00 | 94 | 1013.5 |
| 20260506111553 | 40 | 158 | 0.9 | 0.9 | 0.00 | 0.00 | 0.00 | 93 | 1013.5 |
| 20260506111050 | 40 | 148 | 0.0 | 0.0 | 0.00 | 0.00 | 0.00 | 93 | 1013.5 |
| 20260506110548 | 40 | 121 | 0.0 | 0.0 | 0.00 | 0.00 | 0.00 | 93 | 1013.3 |
| 20260506110045 | 40 | 120 | 0.0 | 0.0 | 0.00 | 0.00 | 0.00 | 92 | 1013.2 |
| 20260506105541 | 40 | 121 | 0.0 | 0.0 | 0.00 | 0.00 | 0.00 | 92 | 1013.3 |
| 20260506105038 | 40 | 121 | 0.0 | 0.0 | 0.00 | 0.00 | 0.00 | 92 | 1013.3 |
| 20260506104536 | 41 | 128 | 0.0 | 0.0 | 0.00 | 0.00 | 0.00 | 92 | 1013.2 |
| 20260506104034 | 41 | 151 | 0.0 | 0.0 | 0.00 | 0.00 | 0.00 | 92 | 1013.2 |
| 20260506103531 | 41 | 134 | 0.0 | 0.0 | 0.00 | 0.00 | 0.00 | 91 | 1013.0 |
| 20260506103027 | 41 | 127 | 0.0 | 0.0 | 0.00 | 0.00 | 0.00 | 91 | 1012.7 |
| 20260506102526 | 41 | 126 | 0.0 | 0.0 | 0.00 | 0.00 | 0.00 | 91 | 1013.0 |
| 20260506102023 | 41 | 133 | 0.0 | 0.0 | 0.00 | 0.00 | 0.00 | 91 | 1012.9 |
| 20260506101519 | 41 | 134 | 0.0 | 0.0 | 0.00 | 0.00 | 0.00 | 91 | 1012.9 |
| 20260506101017 | 41 | 132 | 0.0 | 0.0 | 0.00 | 0.00 | 0.00 | 91 | 1012.9 |
| 20260506100515 | 41 | 132 | 0.0 | 0.0 | 0.00 | 0.00 | 0.00 | 91 | 1012.9 |
| 20260506100013 | 41 | 145 | 0.0 | 0.0 | 0.00 | 0.00 | 0.00 | 91 | 1012.6 |
| 20260506095511 | 41 | 142 | 0.0 | 0.0 | 0.00 | 0.00 | 0.00 | 91 | 1012.7 |
| 20260506095007 | 41 | 107 | 0.0 | 0.0 | 0.00 | 0.00 | 0.00 | 91 | 1012.6 |
| 20260506094505 | 42 | 120 | 0.0 | 0.0 | 0.00 | 0.00 | 0.00 | 91 | 1012.7 |
| 20260506094003 | 42 | 123 | 0.0 | 0.0 | 0.00 | 0.00 | 0.00 | 91 | 1012.9 |
| 20260506093501 | 42 | 138 | 0.0 | 0.0 | 0.00 | 0.00 | 0.00 | 90 | 1012.6 |
| 20260506092958 | 42 | 141 | 0.0 | 0.0 | 0.00 | 0.00 | 0.00 | 90 | 1012.7 |
| 20260506092456 | 43 | 142 | 0.0 | 0.0 | 0.00 | 0.00 | 0.00 | 91 | 1012.6 |
| 20260506091952 | 42 | 123 | 0.0 | 0.0 | 0.00 | 0.00 | 0.00 | 91 | 1012.6 |
| 20260506091450 | 43 | 123 | 0.0 | 0.0 | 0.00 | 0.00 | 0.00 | 91 | 1012.6 |
| 20260506090947 | 43 | 133 | 0.0 | 0.0 | 0.00 | 0.00 | 0.00 | 91 | 1012.5 |
| 20260506090445 | 43 | 147 | 0.0 | 0.0 | 0.00 | 0.00 | 0.00 | 91 | 1012.6 |
| 20260506085941 | 43 | 148 | 0.0 | 0.0 | 0.00 | 0.00 | 0.00 | 90 | 1012.6 |
| 20260506085438 | 44 | 149 | 0.0 | 0.0 | 0.00 | 0.00 | 0.00 | 90 | 1012.6 |
| 20260506084934 | 43 | 149 | 0.0 | 0.0 | 0.00 | 0.00 | 0.00 | 89 | 1012.7 |
| 20260506084432 | 43 | 149 | 0.0 | 0.0 | 0.00 | 0.00 | 0.00 | 89 | 1012.4 |
| 20260506083927 | 43 | 137 | 0.0 | 0.0 | 0.00 | 0.00 | 0.00 | 88 | 1012.5 |
| 20260506083425 | 44 | 126 | 0.0 | 0.0 | 0.00 | 0.00 | 0.00 | 88 | 1012.3 |
| 20260506082922 | 44 | 146 | 0.0 | 0.0 | 0.00 | 0.00 | 0.00 | 88 | 1012.5 |
| 20260506082419 | 44 | 129 | 0.0 | 0.0 | 0.00 | 0.00 | 0.00 | 88 | 1012.5 |
| 20260506081914 | 45 | 129 | 0.0 | 0.0 | 0.00 | 0.00 | 0.00 | 88 | 1012.5 |
| 20260506081413 | 45 | 129 | 0.0 | 0.0 | 0.00 | 0.00 | 0.00 | 88 | 1012.5 |
| 20260506080910 | 45 | 126 | 0.0 | 0.0 | 0.00 | 0.00 | 0.00 | 88 | 1012.5 |
| 20260506080407 | 45 | 115 | 0.0 | 0.0 | 0.00 | 0.00 | 0.00 | 88 | 1012.4 |
| 20260506073351 | 47 | 148 | 0.0 | 0.0 | 0.00 | 0.00 | 0.00 | 86 | 1012.1 |
| 20260506072848 | 47 | 149 | 0.0 | 0.0 | 0.00 | 0.00 | 0.00 | 87 | 1012.2 |
| 20260506072345 | 47 | 149 | 0.0 | 0.0 | 0.00 | 0.00 | 0.00 | 86 | 1012.3 |
| 20260506071843 | 47 | 149 | 0.0 | 0.0 | 0.00 | 0.00 | 0.00 | 86 | 1012.3 |
| 20260506071341 | 47 | 118 | 0.0 | 0.0 | 0.00 | 0.00 | 0.00 | 86 | 1012.1 |
| 20260506070837 | 47 | 118 | 0.0 | 0.0 | 0.00 | 0.00 | 0.00 | 86 | 1012.1 |
| 20260506070335 | 48 | 117 | 0.0 | 0.0 | 0.00 | 0.00 | 0.00 | 84 | 1012.1 |
| 20260506062312 | 49 | 103 | 0.0 | 0.0 | 0.00 | 0.00 | 0.00 | 82 | 1011.7 |
| 20260506061808 | 50 | 103 | 0.0 | 0.0 | 0.00 | 0.00 | 0.00 | 82 | 1011.7 |
| 20260506061305 | 50 | 113 | 0.0 | 0.0 | 0.00 | 0.00 | 0.00 | 82 | 1011.6 |
| 20260506060803 | 50 | 104 | 0.0 | 0.9 | 0.00 | 0.00 | 0.00 | 80 | 1011.6 |
| 20260506060301 | 50 | 107 | 0.0 | 0.0 | 0.00 | 0.00 | 0.00 | 80 | 1011.7 |
| 20260506051232 | 53 | 173 | 0.9 | 0.9 | 0.00 | 0.00 | 0.00 | 73 | 1011.3 |
| 20260506050730 | 53 | 139 | 0.0 | 0.0 | 0.00 | 0.00 | 0.00 | 72 | 1011.0 |
| 20260506050227 | 54 | 139 | 0.0 | 0.0 | 0.00 | 0.00 | 0.00 | 72 | 1011.1 |
| 20260506044718 | 55 | 140 | 0.0 | 0.0 | 0.00 | 0.00 | 0.00 | 69 | 1011.1 |
| 20260506044215 | 56 | 140 | 0.0 | 0.0 | 0.00 | 0.00 | 0.00 | 67 | 1010.8 |
| 20260506043712 | 57 | 146 | 0.0 | 0.0 | 0.00 | 0.00 | 0.00 | 65 | 1011.1 |
| 20260506043210 | 58 | 147 | 0.0 | 0.0 | 0.00 | 0.00 | 0.00 | 62 | 1010.8 |
| 20260506042709 | 58 | 171 | 0.9 | 0.9 | 0.00 | 0.00 | 0.00 | 62 | 1010.7 |
| 20260506042207 | 58 | 157 | 0.9 | 0.9 | 0.00 | 0.00 | 0.00 | 63 | 1010.7 |
| 20260506041705 | 58 | 196 | 0.9 | 1.7 | 0.00 | 0.00 | 0.00 | 63 | 1010.5 |
| 20260506041201 | 59 | 174 | 0.0 | 0.0 | 0.00 | 0.00 | 0.00 | 62 | 1010.5 |
| 20260506040659 | 60 | 150 | 0.0 | 0.0 | 0.00 | 0.00 | 0.00 | 60 | 1010.7 |
| 20260506040155 | 60 | 168 | 0.9 | 0.9 | 0.00 | 0.00 | 0.00 | 58 | 1010.5 |
| 20260506035652 | 60 | 123 | 0.0 | 0.0 | 0.00 | 0.00 | 0.00 | 59 | 1010.5 |
| 20260506035149 | 60 | 55 | 1.7 | 1.7 | 0.00 | 0.00 | 0.00 | 59 | 1010.5 |
| 20260506034646 | 59 | 100 | 0.9 | 1.7 | 0.00 | 0.00 | 0.00 | 61 | 1010.3 |
| 20260506034143 | 59 | 96 | 0.0 | 0.0 | 0.00 | 0.00 | 0.00 | 63 | 1010.3 |
| 20260506033641 | 59 | 56 | 0.9 | 1.7 | 0.00 | 0.00 | 0.00 | 62 | 1010.3 |
| 20260506033137 | 59 | 115 | 0.9 | 0.9 | 0.00 | 0.00 | 0.00 | 61 | 1010.1 |
| 20260506032634 | 60 | 107 | 0.9 | 0.9 | 0.00 | 0.00 | 0.00 | 60 | 1010.3 |
| 20260506032131 | 61 | 103 | 0.9 | 0.9 | 0.00 | 0.00 | 0.00 | 58 | 1010.3 |
| 20260506031628 | 62 | 138 | 0.0 | 0.0 | 0.00 | 0.00 | 0.00 | 57 | 1009.9 |
| 20260506031125 | 62 | 60 | 0.9 | 0.9 | 0.00 | 0.00 | 0.00 | 55 | 1010.1 |
| 20260506030624 | 63 | 109 | 0.0 | 0.0 | 0.00 | 0.00 | 0.00 | 54 | 1010.0 |
| 20260506030120 | 62 | 114 | 0.0 | 0.0 | 0.00 | 0.00 | 0.00 | 54 | 1009.9 |
| 20260506025617 | 63 | 86 | 0.0 | 0.9 | 0.00 | 0.00 | 0.00 | 56 | 1009.8 |
| 20260506025113 | 64 | 142 | 0.0 | 0.0 | 0.00 | 0.00 | 0.00 | 55 | 1010.0 |
| 20260506024611 | 64 | 59 | 0.9 | 0.9 | 0.00 | 0.00 | 0.00 | 53 | 1009.9 |
| 20260506024107 | 66 | 107 | 0.0 | 0.0 | 0.00 | 0.00 | 0.00 | 50 | 1009.8 |
| 20260506023603 | 66 | 204 | 1.7 | 1.7 | 0.00 | 0.00 | 0.00 | 48 | 1009.4 |
| 20260506023101 | 67 | 271 | 1.7 | 2.6 | 0.00 | 0.00 | 0.00 | 47 | 1009.6 |
| 20260506022558 | 68 | 165 | 0.0 | 0.0 | 0.00 | 0.00 | 0.00 | 46 | 1009.6 |
| 20260506022056 | 68 | 314 | 0.9 | 1.7 | 0.00 | 0.00 | 0.00 | 46 | 1009.5 |
| 20260506021553 | 68 | 26 | 0.9 | 0.9 | 0.00 | 0.00 | 0.00 | 46 | 1009.5 |
| 20260506021050 | 70 | 130 | 0.9 | 1.7 | 0.00 | 0.00 | 0.00 | 41 | 1009.5 |
| 20260506020547 | 71 | 231 | 2.6 | 2.6 | 0.00 | 0.00 | 0.00 | 40 | 1009.4 |
| 20260506020045 | 71 | 130 | 0.9 | 0.9 | 0.00 | 0.00 | 0.00 | 40 | 1009.4 |
| 20260506015542 | 71 | 122 | 1.7 | 1.7 | 0.00 | 0.00 | 0.00 | 40 | 1009.5 |
| 20260506015039 | 71 | 237 | 2.6 | 5.2 | 0.00 | 0.00 | 0.00 | 39 | 1009.4 |
| 20260506014536 | 71 | 281 | 2.6 | 3.5 | 0.00 | 0.00 | 0.00 | 38 | 1009.2 |
| 20260506014032 | 72 | 278 | 3.5 | 3.5 | 0.00 | 0.00 | 0.00 | 37 | 1009.3 |
| 20260506013531 | 72 | 315 | 5.2 | 7.8 | 0.00 | 0.00 | 0.00 | 37 | 1009.0 |
| 20260506013027 | 73 | 256 | 3.5 | 3.5 | 0.00 | 0.00 | 0.00 | 37 | 1009.1 |
| 20260506012523 | 73 | 327 | 3.5 | 3.5 | 0.00 | 0.00 | 0.00 | 37 | 1009.0 |
| 20260506012020 | 73 | 286 | 9.6 | 11.3 | 0.00 | 0.00 | 0.00 | 36 | 1009.2 |
| 20260506011518 | 73 | 196 | 4.3 | 6.1 | 0.00 | 0.00 | 0.00 | 35 | 1009.0 |
| 20260506011014 | 73 | 233 | 5.2 | 6.1 | 0.00 | 0.00 | 0.00 | 34 | 1009.1 |
| 20260506010513 | 74 | 227 | 1.7 | 1.7 | 0.00 | 0.00 | 0.00 | 33 | 1008.8 |
| 20260506010009 | 74 | 289 | 6.1 | 7.8 | 0.00 | 0.00 | 0.00 | 33 | 1008.8 |
| 20260506005507 | 74 | 316 | 4.3 | 5.2 | 0.00 | 0.00 | 0.00 | 33 | 1009.0 |
| 20260506005002 | 74 | 335 | 3.5 | 3.5 | 0.00 | 0.00 | 0.00 | 32 | 1009.0 |
| 20260506004500 | 74 | 306 | 7.0 | 8.7 | 0.00 | 0.00 | 0.00 | 32 | 1009.1 |
| 20260506003956 | 74 | 149 | 0.9 | 1.7 | 0.00 | 0.00 | 0.00 | 33 | 1008.7 |
| 20260506003452 | 74 | 232 | 7.0 | 7.8 | 0.00 | 0.00 | 0.00 | 31 | 1008.6 |
| 20260506002948 | 75 | 244 | 3.5 | 6.1 | 0.00 | 0.00 | 0.00 | 33 | 1008.6 |
| 20260506002445 | 75 | 346 | 5.2 | 7.0 | 0.00 | 0.00 | 0.00 | 30 | 1008.8 |
| 20260506001940 | 75 | 335 | 5.2 | 8.7 | 0.00 | 0.00 | 0.00 | 32 | 1008.5 |
| 20260506001438 | 75 | 353 | 5.2 | 7.8 | 0.00 | 0.00 | 0.00 | 32 | 1008.8 |
| 20260506000935 | 75 | 27 | 4.3 | 6.1 | 0.00 | 0.00 | 0.00 | 32 | 1008.8 |
| 20260506000432 | 76 | 310 | 5.2 | 8.7 | 0.00 | 0.00 | 0.00 | 30 | 1008.8 |
| 20260505235929 | 76 | 350 | 3.5 | 5.2 | 0.00 | 0.00 | 0.00 | 31 | 1008.7 |
| 20260505235427 | 76 | 206 | 4.3 | 5.2 | 0.00 | 0.00 | 0.00 | 28 | 1008.5 |
| 20260505234924 | 76 | 326 | 7.8 | 9.6 | 0.00 | 0.00 | 0.00 | 27 | 1009.0 |
| 20260505234421 | 76 | 301 | 3.5 | 3.5 | 0.00 | 0.00 | 0.00 | 29 | 1008.7 |
| 20260505233918 | 75 | 188 | 3.5 | 5.2 | 0.00 | 0.00 | 0.00 | 30 | 1008.7 |
| 20260505233416 | 76 | 183 | 2.6 | 6.1 | 0.00 | 0.00 | 0.00 | 32 | 1008.8 |
| 20260505232913 | 75 | 349 | 3.5 | 5.2 | 0.00 | 0.00 | 0.00 | 31 | 1008.6 |
| 20260505232411 | 76 | 328 | 3.5 | 6.1 | 0.00 | 0.00 | 0.00 | 31 | 1008.7 |
| 20260505231907 | 76 | 113 | 5.2 | 7.8 | 0.00 | 0.00 | 0.00 | 31 | 1008.6 |
| 20260505231405 | 76 | 99 | 6.1 | 8.7 | 0.00 | 0.00 | 0.00 | 30 | 1008.7 |
| 20260505230903 | 76 | 25 | 3.5 | 3.5 | 0.00 | 0.00 | 0.00 | 33 | 1008.5 |
| 20260505230400 | 77 | 221 | 4.3 | 5.2 | 0.00 | 0.00 | 0.00 | 34 | 1008.8 |
| 20260505225856 | 76 | 350 | 4.3 | 7.0 | 0.00 | 0.00 | 0.00 | 34 | 1008.6 |
| 20260505225354 | 77 | 214 | 3.5 | 3.5 | 0.00 | 0.00 | 0.00 | 34 | 1008.5 |
| 20260505224849 | 76 | 306 | 5.2 | 6.1 | 0.00 | 0.00 | 0.00 | 35 | 1008.6 |
| 20260505224347 | 76 | 148 | 1.7 | 1.7 | 0.00 | 0.00 | 0.00 | 35 | 1008.5 |
| 20260505223843 | 77 | 259 | 5.2 | 6.1 | 0.00 | 0.00 | 0.00 | 35 | 1008.8 |
| 20260505223340 | 77 | 265 | 5.2 | 7.8 | 0.00 | 0.00 | 0.00 | 33 | 1008.7 |
| 20260505222836 | 77 | 300 | 5.2 | 7.0 | 0.00 | 0.00 | 0.00 | 33 | 1008.6 |
| 20260505222332 | 77 | 7 | 2.6 | 3.5 | 0.00 | 0.00 | 0.00 | 33 | 1008.6 |
| 20260505221830 | 76 | 298 | 4.3 | 5.2 | 0.00 | 0.00 | 0.00 | 33 | 1008.8 |
| 20260505221326 | 77 | 210 | 4.3 | 6.1 | 0.00 | 0.00 | 0.00 | 33 | 1008.6 |
| 20260505220823 | 76 | 318 | 10.4 | 14.8 | 0.00 | 0.00 | 0.00 | 33 | 1008.7 |
| 20260505220320 | 76 | 275 | 6.1 | 9.6 | 0.00 | 0.00 | 0.00 | 34 | 1008.6 |
| 20260505215819 | 76 | 297 | 7.0 | 8.7 | 0.00 | 0.00 | 0.00 | 34 | 1008.8 |
| 20260505215316 | 77 | 151 | 4.3 | 6.1 | 0.00 | 0.00 | 0.00 | 35 | 1008.7 |
| 20260505214814 | 76 | 300 | 3.5 | 5.2 | 0.00 | 0.00 | 0.00 | 34 | 1009.0 |
| 20260505214311 | 77 | 311 | 7.8 | 8.7 | 0.00 | 0.00 | 0.00 | 35 | 1009.0 |
| 20260505213808 | 76 | 303 | 4.3 | 6.1 | 0.00 | 0.00 | 0.00 | 35 | 1008.7 |
| 20260505213306 | 76 | 353 | 3.5 | 3.5 | 0.00 | 0.00 | 0.00 | 34 | 1009.0 |
| 20260505212801 | 76 | 322 | 8.7 | 11.3 | 0.00 | 0.00 | 0.00 | 36 | 1008.6 |
| 20260505212259 | 76 | 264 | 5.2 | 7.0 | 0.00 | 0.00 | 0.00 | 36 | 1008.7 |
| 20260505211755 | 76 | 326 | 3.5 | 5.2 | 0.00 | 0.00 | 0.00 | 36 | 1008.7 |
| 20260505211253 | 75 | 147 | 3.5 | 5.2 | 0.00 | 0.00 | 0.00 | 36 | 1008.6 |
| 20260505210749 | 75 | 285 | 4.3 | 6.1 | 0.00 | 0.00 | 0.00 | 36 | 1008.7 |
| 20260505210246 | 76 | 301 | 3.5 | 5.2 | 0.00 | 0.00 | 0.00 | 35 | 1008.6 |
| 20260505205743 | 77 | 353 | 3.5 | 5.2 | 0.00 | 0.00 | 0.00 | 36 | 1008.7 |
| 20260505205242 | 74 | 7 | 3.5 | 5.2 | 0.00 | 0.00 | 0.00 | 37 | 1008.8 |
| 20260505204738 | 76 | 231 | 3.5 | 3.5 | 0.00 | 0.00 | 0.00 | 35 | 1009.1 |
| 20260505204236 | 74 | 301 | 2.6 | 2.6 | 0.00 | 0.00 | 0.00 | 38 | 1008.7 |
| 20260505203732 | 74 | 336 | 2.6 | 2.6 | 0.00 | 0.00 | 0.00 | 37 | 1008.6 |
| 20260505203230 | 74 | 48 | 3.5 | 5.2 | 0.00 | 0.00 | 0.00 | 37 | 1008.8 |
| 20260505202725 | 72 | 43 | 1.7 | 1.7 | 0.00 | 0.00 | 0.00 | 40 | 1009.0 |
| 20260505202221 | 73 | 16 | 2.6 | 3.5 | 0.00 | 0.00 | 0.00 | 41 | 1008.7 |
| 20260505201718 | 73 | 29 | 1.7 | 3.5 | 0.00 | 0.00 | 0.00 | 39 | 1009.1 |
| 20260505201216 | 73 | 126 | 1.7 | 1.7 | 0.00 | 0.00 | 0.00 | 39 | 1009.0 |
| 20260505200714 | 74 | 329 | 4.3 | 5.2 | 0.00 | 0.00 | 0.00 | 40 | 1008.8 |
| 20260505200211 | 75 | 76 | 0.9 | 0.9 | 0.00 | 0.00 | 0.00 | 38 | 1008.7 |
| 20260505195706 | 75 | 174 | 2.6 | 2.6 | 0.00 | 0.00 | 0.00 | 38 | 1008.6 |
| 20260505195204 | 75 | 89 | 0.9 | 1.7 | 0.00 | 0.00 | 0.00 | 38 | 1009.0 |
| 20260505194701 | 75 | 337 | 6.1 | 7.8 | 0.00 | 0.00 | 0.00 | 38 | 1009.2 |
| 20260505194157 | 75 | 154 | 2.6 | 3.5 | 0.00 | 0.00 | 0.00 | 38 | 1009.0 |
| 20260505193653 | 74 | 250 | 1.7 | 2.6 | 0.00 | 0.00 | 0.00 | 37 | 1009.1 |
| 20260505193151 | 74 | 97 | 0.9 | 0.9 | 0.00 | 0.00 | 0.00 | 36 | 1009.1 |
| 20260505192649 | 75 | 82 | 1.7 | 1.7 | 0.00 | 0.00 | 0.00 | 36 | 1009.1 |
| 20260505192146 | 76 | 123 | 0.9 | 0.9 | 0.00 | 0.00 | 0.00 | 35 | 1009.2 |
| 20260505191645 | 76 | 271 | 1.7 | 1.7 | 0.00 | 0.00 | 0.00 | 34 | 1009.2 |
| 20260505191143 | 75 | 110 | 0.9 | 0.9 | 0.00 | 0.00 | 0.00 | 33 | 1009.1 |
| 20260505190638 | 74 | 68 | 2.6 | 5.2 | 0.00 | 0.00 | 0.00 | 33 | 1009.3 |
| 20260505190133 | 73 | 91 | 0.9 | 0.9 | 0.00 | 0.00 | 0.00 | 33 | 1009.3 |
| 20260505185630 | 74 | 158 | 1.7 | 2.6 | 0.00 | 0.00 | 0.00 | 33 | 1009.1 |
| 20260505185126 | 74 | 143 | 0.0 | 0.0 | 0.00 | 0.00 | 0.00 | 32 | 1008.8 |
| 20260505184623 | 73 | 177 | 0.9 | 0.9 | 0.00 | 0.00 | 0.00 | 33 | 1009.0 |
| 20260505184120 | 75 | 152 | 0.9 | 0.9 | 0.00 | 0.00 | 0.00 | 30 | 1009.3 |
| 20260505183616 | 75 | 106 | 1.7 | 1.7 | 0.00 | 0.00 | 0.00 | 29 | 1009.1 |
| 20260505183114 | 75 | 123 | 1.7 | 3.5 | 0.00 | 0.00 | 0.00 | 27 | 1009.1 |
| 20260505182610 | 75 | 147 | 4.3 | 6.1 | 0.00 | 0.00 | 0.00 | 29 | 1009.2 |
| 20260505182107 | 74 | 114 | 0.9 | 0.9 | 0.00 | 0.00 | 0.00 | 30 | 1009.2 |
| 20260505181604 | 74 | 98 | 0.9 | 1.7 | 0.00 | 0.00 | 0.00 | 29 | 1009.4 |
| 20260505181101 | 75 | 103 | 1.7 | 2.6 | 0.00 | 0.00 | 0.00 | 31 | 1009.3 |
| 20260505180556 | 76 | 134 | 0.0 | 0.0 | 0.00 | 0.00 | 0.00 | 32 | 1009.2 |
| 20260505180055 | 75 | 130 | 0.9 | 0.9 | 0.00 | 0.00 | 0.00 | 31 | 1009.1 |
| 20260505175550 | 75 | 124 | 0.0 | 0.9 | 0.00 | 0.00 | 0.00 | 32 | 1009.0 |
| 20260505175046 | 75 | 185 | 0.0 | 0.0 | 0.00 | 0.00 | 0.00 | 34 | 1009.1 |
| 20260505174544 | 74 | 134 | 0.0 | 0.0 | 0.00 | 0.00 | 0.00 | 35 | 1009.2 |
| 20260505174039 | 72 | 106 | 0.9 | 0.9 | 0.00 | 0.00 | 0.00 | 38 | 1009.2 |
| 20260505173536 | 71 | 75 | 0.9 | 1.7 | 0.00 | 0.00 | 0.00 | 42 | 1009.2 |
| 20260505173033 | 72 | 137 | 0.0 | 0.0 | 0.00 | 0.00 | 0.00 | 41 | 1009.1 |
| 20260505172531 | 73 | 128 | 0.0 | 0.0 | 0.00 | 0.00 | 0.00 | 42 | 1009.2 |
| 20260505172027 | 71 | 109 | 0.9 | 0.9 | 0.00 | 0.00 | 0.00 | 45 | 1009.3 |
| 20260505171522 | 70 | 150 | 0.0 | 0.9 | 0.00 | 0.00 | 0.00 | 48 | 1009.1 |
| 20260505171020 | 69 | 78 | 1.7 | 2.6 | 0.00 | 0.00 | 0.00 | 47 | 1009.3 |
| 20260505170516 | 69 | 118 | 0.0 | 0.0 | 0.00 | 0.00 | 0.00 | 48 | 1009.5 |
| 20260505170012 | 69 | 141 | 0.0 | 0.9 | 0.00 | 0.00 | 0.00 | 49 | 1009.2 |
| 20260505165508 | 66 | 220 | 0.9 | 1.7 | 0.00 | 0.00 | 0.00 | 53 | 1009.4 |
| 20260505165004 | 67 | 167 | 0.9 | 1.7 | 0.00 | 0.00 | 0.00 | 52 | 1009.2 |
| 20260505164500 | 67 | 137 | 0.9 | 0.9 | 0.00 | 0.00 | 0.00 | 51 | 1009.3 |
| 20260505163958 | 67 | 79 | 1.7 | 1.7 | 0.00 | 0.00 | 0.00 | 51 | 1009.4 |
| 20260505163456 | 65 | 118 | 0.0 | 0.0 | 0.00 | 0.00 | 0.00 | 54 | 1009.3 |
| 20260505162956 | 63 | 150 | 0.9 | 0.9 | 0.00 | 0.00 | 0.00 | 57 | 1009.3 |
| 20260505162451 | 63 | 153 | 0.9 | 0.9 | 0.00 | 0.00 | 0.00 | 58 | 1009.5 |
| 20260505161947 | 62 | 100 | 0.0 | 0.9 | 0.00 | 0.00 | 0.00 | 58 | 1009.4 |
| 20260505161439 | 63 | 142 | 0.0 | 0.9 | 0.00 | 0.00 | 0.00 | 59 | 1009.5 |
| 20260505160936 | 63 | 262 | 0.0 | 1.7 | 0.00 | 0.00 | 0.00 | 58 | 1009.5 |
| 20260505160435 | 60 | 118 | 0.0 | 0.0 | 0.00 | 0.00 | 0.00 | 63 | 1009.5 |
| 20260505152910 | 58 | 98 | 0.9 | 0.9 | 0.00 | 0.00 | 0.00 | 67 | 1009.7 |
| 20260505152402 | 57 | 132 | 0.0 | 0.0 | 0.00 | 0.00 | 0.00 | 69 | 1009.7 |
| 20260505151901 | 55 | 136 | 0.0 | 0.0 | 0.00 | 0.00 | 0.00 | 72 | 1009.8 |
| 20260505151358 | 54 | 137 | 0.0 | 0.0 | 0.00 | 0.00 | 0.00 | 76 | 1009.6 |
| 20260505150855 | 53 | 127 | 0.9 | 0.9 | 0.00 | 0.00 | 0.00 | 77 | 1009.4 |
| 20260505150352 | 52 | 133 | 0.9 | 0.9 | 0.00 | 0.00 | 0.00 | 80 | 1009.6 |